CZ-3C DEB, 39339

Orbit data source: Space-Track

CZ-3C DEB, 39339 is space debris in HEO originally from a launch on Sun, 31 Oct 2010 UTC launched from the Xichang Space Center, China (XSC). Debris objects in space refer to the collection of defunct objects orbiting the Earth. Examples of debris include non-operational satellites, rocket bodies, and fragments generated from explosions, collisions, or faulty payload assembly.

Loading next visibility...
Identifier
39339, 2010-057D
Orbit
HEO
Country
Flag of CNCN / PRC
Related business
Manufacturer
CALT
Mission
Spacecraft
Bus & Motor
Unknown
Mass
Unknown
Launch date (UTC)
2010-10-31 (15 years ago)
Launch vehicle
Unknown
Launch site
Xichang Space Center, China (XSC)
Object type
Payload
Rocket body
Debris
Shape & HBR
Unknown shape, 0.3 m
Radar Cross Section
Medium (>0.1 m² and <1 m²)

Expand to show TLE details & history
Last TLE update: 3 days ago

TLE from 3 days ago
0 CZ-3C DEB
1 39339U 10057D   26102.40583292  .00000159  00000-0  70177-2 0  9993
2 39339  21.2215 280.8915 7182637 165.6213 245.1127  2.14546604 97902
Epoch: 2026-04-12T09:44Z
TLE epoch observation values (Epoch: 2026-04-12T09:44:23.964Z)
Latitude
0.72991°
Longitude
-63.95026°
Altitude
33,124.985 km
Speed
2.118 km/s
True Right ascension
18h 51m 02s
True Declination
0° 43' 45"
Sunlit
Object was in daylight at epoch
Visualization orbit readout
Latitude
Unknown
Longitude
Unknown
Altitude
Unknown
Speed
Unknown
Apparent Right ascension
Unknown
Apparent Declination
Unknown
Sunlit
N/A
Visualization observer readout
Local Sidereal Time
04:19:41
Azimuth
Unknown
Elevation
Unknown
Doppler factor
Unknown
Orbital elements
Apogee altitude
37,261.546 km
Perigee altitude
777.274 km
Semi-major axis
25,397.547 km
Eccentricity
0.71826
Inclination
21.2215°
RAAN
280.8915°
Arg. of periapsis
165.6213°
True anomaly
196.38164°
Mean anomaly
245.1127°
Eccentric anomaly
219.13737°
Mean motion
0.53624 °/min
Orbital period
671.35 mins
BSTAR
0.0070177
Loading maneuver chart data...
Computing Atmospheric mass density...
Loading historical data...
Loading historical data...
Loading historical data...
Loading historical data...
Loading historical data...
Loading historical data...
Loading historical data...

Documentation

Showing up to 5 results
|